パンスターズ彗星

P/2016 P1 ( PanSTARRS )

English version
Home page
Updated on January 17, 2017

---------------------------------------------------------------------

・ プロフィール

発見日 2016年8月1日
発見光度 22.1等
発見者 Pan-STARRS 1 telescope (Haleakala)

・ 写真集

・ 軌道要素

Epoch 2015 Sept. 15.0 TT = JDT 2457280.5
T 2015 Sept. 22.68395 TT                                MPCW
q   2.2691071            (2000.0)            P               Q
n   0.17272607     Peri.  269.80610     -0.59229948     +0.75976278
a   3.1932343      Node   319.61986     -0.46949376     -0.59598846
e   0.2894016      Incl.   24.45708     -0.65479534     -0.25991974
P   5.71
From 39 observations 2016 Aug. 1-12, mean residual 0".4.

・ 光度変化

        m1 = 15.0 + 5 logΔ + 10.0 log r

---------------------------------------------------------------------

軌道要素はM.P.E.C. 2016-U66に掲載されたものです。
光度グラフはComet for Windowsで作成したものです。

---------------------------------------------------------------------

Copyright(C) Seiichi Yoshida (comet@aerith.net). All rights reserved.